Regional Weather Roundup
Issued by NWS

Home | Current Version | Previous Version | Text Only | Print | Product List | Glossary Off
Versions: 1 2 3 4 5 6 7 8 9 10 11 12 13 14 15 16 17 18 19 20 21 22 23 24 25 26 27 28 29 30 31 32 33 34 35 36 37 38 39 40 41 42 43 44 45 46 47 48 49 50

590
ASUS43 KBIS 200702
RWRND

NORTH DAKOTA REGIONAL WEATHER ROUNDUP
NATIONAL WEATHER SERVICE BISMARCK ND
200 AM CDT THU JUL 20 2017

NOTE: "FAIR" INDICATES FEW OR NO CLOUDS BELOW 12,000 FEET WITH NO
SIGNIFICANT WEATHER AND/OR OBSTRUCTIONS TO VISIBILITY.


NDZ001>003-009>011-017-200800-
NORTHWEST NORTH DAKOTA

CITY           SKY/WX    TMP DP  RH WIND       PRES   REMARKS
WILLISTON        N/A     72  57  59 MISG      29.96S
MINOT          MOCLDY    69  59  70 N8        29.98R
MINOT AFB      LGT RAIN  64  61  88 E6        29.98F
$$

NDZ018>021-031>035-040>046-200800-
SOUTHWEST NORTH DAKOTA

CITY           SKY/WX    TMP DP  RH WIND       PRES   REMARKS
BISMARCK       CLEAR     68  62  81 CALM      29.99S
DICKINSON      CLEAR     65  58  78 S10       29.99F
GARRISON         N/A     65  62  90 E5        29.96F
HETTINGER ARPT PTCLDY    66  56  70 SE3       30.05S
$$

NDZ004>008-012>016-024-026-027-054-200800-
NORTHEAST NORTH DAKOTA

CITY           SKY/WX    TMP DP  RH WIND       PRES   REMARKS
GRAND FORKS    PTCLDY    63  63 100 W8        29.94R
GRND FRKS AFB  PTCLDY    59  59 100 NW3       29.95S
DEVILS LAKE    FOG       60  60 100 N3        30.00S VSB 1/4
$$

NDZ022-023-025-028>030-036>039-047>053-200800-
SOUTHEAST NORTH DAKOTA

CITY           SKY/WX    TMP DP  RH WIND       PRES   REMARKS
FARGO          CLEAR     68  66  93 NW6       29.94S
JAMESTOWN      CLEAR     66  62  87 W3        29.98S
$$





USA.gov is the U.S. government's official web portal to all federal, state and local government web resources and services.